[[{"header":{"parameterUnit":"m.s-1","parameterCategory":1,"la1":30.2991,"la2":30.254,"lo1":-89.0895,"lo2":-89.0444,"dy":0.0017,"dx":0.0017,"nx":28,"ny":28,"refTime":"2024-08-31T21:00:00:Z","depth":0,"parameterNumber":2,"parameterNumberName":"U-component_of_WINDS"},"data":[0,0,0,0,0,0,0,0,0,0,0,0,0,0,0,0,0,0,0,0,0,0,0,0,0,0,0,0,0,0,0,0,0,0,0,0,0,0,0,0,0,0,0,0,0,0,0,0,0,0,0,0,0,0,0,0,0,0,-2.2788,-2.2787,0,-2.2732,-2.2731,-2.273,-2.2665,-2.2664,-2.2663,-2.2662,-2.2605,-2.2605,-2.2604,0,0,0,0,0,0,0,0,0,0,0,0,0,-2.2841,-2.2841,-2.2788,-2.2787,-2.2787,-2.2732,-2.2731,-2.273,-2.2665,-2.2664,-2.2662,-2.2661,-2.2606,-2.2605,-2.2604,0,0,0,0,0,0,0,0,0,0,0,0,0,-2.2805,-2.2841,-2.2788,-2.2747,-2.2743,-2.2732,-2.2731,-2.273,-2.2665,-2.2664,-2.2662,-2.2661,-2.2606,-2.2605,-2.2604,-2.2629,0,0,-2.2602,-2.2601,0,0,0,0,0,0,0,0,-2.2807,-2.2803,-2.2754,-2.275,-2.2745,-2.2704,-2.2729,-2.2696,-2.2665,-2.2695,-2.2662,-2.266,-2.2639,-2.2636,-2.2628,-2.2626,-2.2624,-2.2602,-2.2601,-2.2601,-2.26,0,0,0,0,0,0,0,-2.281,-2.2805,-2.2766,-2.2753,-2.2748,-2.2733,-2.2726,-2.2723,-2.2676,-2.2692,-2.2687,-2.2681,-2.2637,-2.2629,-2.2627,-2.2623,-2.2602,-2.2601,-2.26,-2.26,-2.2641,-2.2643,0,0,0,0,0,0,-2.2818,-2.2808,-2.2768,-2.2764,-2.2773,-2.2733,-2.2725,-2.2719,-2.2676,-2.2668,-2.2683,-2.2678,-2.2632,-2.2628,-2.2624,-2.2652,-2.2601,-2.26,-2.2599,-2.264,-2.2642,-2.2643,0,0,0,0,0,0,-2.282,-2.2815,-2.277,-2.2785,-2.2778,-2.2734,-2.2727,-2.2718,-2.2711,-2.2669,-2.2661,-2.2684,-2.263,-2.2626,-2.2629,-2.265,-2.2599,-2.2599,-2.2638,-2.264,-2.2642,-2.2708,0,0,0,0,0,0,-2.2821,-2.2816,-2.2824,-2.2785,-2.2777,-2.2775,-2.2728,-2.2718,-2.2709,-2.2703,-2.2668,-2.266,-2.2629,-2.263,-2.2628,-2.2647,-2.2598,-2.2636,-2.2639,-2.2642,-2.2704,-2.2712,-2.272,0,0,0,0,0,-2.2823,-2.2845,-2.2825,-2.2821,-2.2786,-2.2776,-2.2771,-2.2734,-2.2711,-2.272,-2.2693,-2.2661,-2.2648,-2.2631,-2.2628,-2.2648,-2.2634,-2.2638,-2.2641,-2.27,-2.2711,-2.2719,0,0,0,0,0,0,-2.2888,-2.2839,-2.2817,-2.2826,-2.2806,-2.2765,-2.2774,-2.2746,-2.2732,-2.2727,-2.2682,-2.2675,-2.2684,-2.2666,-2.2649,-2.2671,-2.2636,-2.264,-2.2682,-2.2692,-2.27,-2.2704,-2.2597,0,0,0,0,0,-2.2903,-2.2898,-2.2855,-2.2868,-2.2859,-2.2819,-2.2813,-2.2786,-2.2763,-2.2754,-2.2728,-2.2708,-2.2699,-2.2694,-2.2683,-2.2701,-2.2693,-2.2713,-2.2721,-2.2727,-2.2731,-2.2741,-2.275,-2.2655,-2.2655,-2.2655,0,0,-2.2934,-2.2907,-2.2906,-2.288,-2.2861,-2.2858,-2.2812,-2.281,-2.2807,-2.2754,-2.2756,-2.2736,-2.2711,-2.2722,-2.2725,-2.2707,-2.2755,-2.2732,-2.2738,-2.2737,-2.2746,-2.2755,-2.2763,-2.2658,-2.2657,-2.2657,0,0,-2.299,-2.2968,-2.2977,-2.2959,-2.2931,-2.2905,-2.2907,-2.2871,-2.2856,-2.2857,-2.2818,-2.2814,-2.28,-2.2784,-2.2774,-2.2826,-2.2797,-2.2824,-2.2866,-2.2876,-2.2883,-2.289,-2.291,-2.2918,-2.2827,-2.2827,-2.2827,0,-2.3032,-2.3025,-2.2985,-2.2986,-2.2977,-2.2928,-2.2938,-2.2923,-2.2893,-2.2888,-2.2868,-2.285,-2.2829,-2.2837,-2.285,-2.2843,-2.2845,-2.2828,-2.2885,-2.2891,-2.2897,-2.2916,-2.2924,-2.2831,-2.2831,-2.283,-2.283,0,-2.308,-2.3076,-2.3087,-2.306,-2.3051,-2.3057,-2.3018,-2.3015,-2.2989,-2.2965,-2.2968,-2.2942,-2.2926,-2.2926,-2.29,-2.2931,-2.292,-2.2893,-2.2858,-2.291,-2.2928,-2.2934,-2.2836,-2.2835,-2.2834,-2.2833,0,0,-2.3174,-2.3126,-2.3131,-2.3119,-2.3086,-2.3082,-2.3086,-2.3071,-2.307,-2.3051,-2.3054,-2.3044,-2.3019,-2.3008,-2.2981,-2.299,-2.3036,-2.2962,-2.2961,-2.2978,-2.307,-2.3091,-2.31,-2.3016,-2.3017,-2.3018,-2.3072,0,-2.3225,-2.3229,-2.3194,-2.3207,-2.3204,-2.3159,-2.3163,-2.3144,-2.3122,-2.3117,-2.3092,-2.3087,-2.3053,-2.3047,-2.3053,-2.3029,-2.3054,-2.3024,-2.302,-2.302,-2.3029,-2.3109,-2.3131,-2.3184,-2.3079,-2.308,-2.308,0,-2.3285,-2.3271,-2.3284,-2.3252,-2.325,-2.3254,-2.3238,-2.3233,-2.3211,-2.3194,-2.3183,-2.3152,-2.3155,-2.3121,-2.3126,-2.3107,-2.3103,-2.3091,-2.3092,-2.3091,-2.3055,-2.3112,-2.32,-2.3208,-2.309,-2.309,-2.3089,0,-2.3355,-2.3339,-2.3345,-2.3336,-2.3298,-2.3303,-2.3287,-2.3264,-2.3257,-2.3244,-2.324,-2.3227,-2.322,-2.3211,-2.3178,-2.3156,-2.3188,-2.3151,-2.3176,-2.3177,-2.3185,-2.3186,-2.3275,-2.3181,-2.318,-2.318,-2.318,0,-2.3416,-2.3427,-2.3376,-2.3381,-2.3392,-2.3352,-2.3364,-2.3344,-2.3324,-2.3325,-2.3285,-2.3286,-2.3242,-2.3239,-2.3213,-2.3223,-2.3219,-2.3207,-2.3201,-2.3212,-2.3214,-2.321,-2.3206,-2.3182,-2.3182,-2.3182,-2.3181,0,-2.3496,-2.3462,-2.3467,-2.3432,-2.3423,-2.3433,-2.3403,-2.3406,-2.3382,-2.3384,-2.3382,-2.3344,-2.3339,-2.3305,-2.3292,-2.3275,-2.3294,-2.3279,-2.3302,-2.3298,-2.3326,-2.3325,-2.3418,-2.3429,-2.3325,-2.3326,-2.3327,0,-2.3538,-2.3545,-2.3511,-2.3509,-2.3495,-2.3491,-2.3485,-2.3446,-2.3442,-2.3418,-2.3425,-2.3416,-2.3408,-2.3402,-2.3374,-2.3365,-2.335,-2.3384,-2.3349,-2.3361,-2.3353,-2.3354,-2.3356,-2.3392,-2.3393,-2.3394,-2.3395,0,-2.3617,-2.3601,-2.3593,-2.358,-2.3574,-2.3562,-2.3548,-2.3548,-2.3505,-2.3503,-2.3497,-2.349,-2.3478,-2.3471,-2.3456,-2.3441,-2.3412,-2.3406,-2.3412,-2.3424,-2.3438,-2.3433,-2.3324,-2.3404,-2.3403,-2.3403,-2.3402,-2.3402,-2.368,-2.3686,-2.3663,-2.3656,-2.3642,-2.363,-2.3632,-2.3609,-2.3603,-2.359,-2.3567,-2.3565,-2.3545,-2.3523,-2.3511,-2.351,-2.3492,-2.35,-2.3502,-2.3505,-2.3512,-2.3437,-2.3507,-2.3506,-2.3506,-2.3506,-2.3506,0,-2.3759,-2.3742,-2.3737,-2.3719,-2.3714,-2.3686,-2.3669,-2.3668,-2.3667,-2.365,-2.3643,-2.3637,-2.3631,-2.3603,-2.3594,-2.3599,-2.3585,-2.3598,-2.3598,-2.3596,-2.3527,-2.3524,-2.3609,-2.3609,-2.3609,-2.3609,-2.3609,-2.3609,-2.3799,-2.3808,-2.3789,-2.379,-2.3773,-2.3771,-2.3765,-2.3754,-2.3741,-2.3737,-2.3731,-2.3713,-2.3693,-2.3682,-2.3676,-2.3668,-2.3667,-2.3685,-2.3673,-2.361,-2.36,-2.3591,-2.3588,-2.3685,-2.3685,-2.3742,-2.3742,-2.3743]},{"header":{"parameterUnit":"m.s-1","parameterCategory":1,"la1":30.2991,"la2":30.254,"lo1":-89.0895,"lo2":-89.0444,"dy":0.0017,"dx":0.0017,"nx":28,"ny":28,"refTime":"2024-08-31T21:00:00:Z","depth":0,"parameterNumber":3,"parameterNumberName":"V-component_of_WINDS"},"data":[0,0,0,0,0,0,0,0,0,0,0,0,0,0,0,0,0,0,0,0,0,0,0,0,0,0,0,0,0,0,0,0,0,0,0,0,0,0,0,0,0,0,0,0,0,0,0,0,0,0,0,0,0,0,0,0,0,0,0.2295,0.2295,0,0.2333,0.2333,0.2334,0.2382,0.2383,0.2384,0.2384,0.2422,0.2422,0.2422,0,0,0,0,0,0,0,0,0,0,0,0,0,0.2262,0.2262,0.2295,0.2295,0.2296,0.2333,0.2333,0.2334,0.2382,0.2383,0.2384,0.2385,0.2422,0.2422,0.2422,0,0,0,0,0,0,0,0,0,0,0,0,0,0.2285,0.2262,0.2295,0.2324,0.2327,0.2333,0.2333,0.2334,0.2382,0.2383,0.2384,0.2385,0.2422,0.2422,0.2423,0.2402,0,0,0.2424,0.2424,0,0,0,0,0,0,0,0,0.2284,0.2287,0.2319,0.2322,0.2326,0.2354,0.2336,0.2357,0.2382,0.2361,0.2384,0.2386,0.2398,0.2401,0.2405,0.2403,0.2405,0.2424,0.2424,0.2424,0.2424,0,0,0,0,0,0,0,0.2282,0.2285,0.231,0.232,0.2324,0.2335,0.234,0.234,0.2373,0.2363,0.2367,0.237,0.24,0.2405,0.2406,0.2406,0.2424,0.2424,0.2424,0.2425,0.2387,0.2386,0,0,0,0,0,0,0.2276,0.2284,0.2309,0.2311,0.2307,0.2335,0.234,0.2344,0.2373,0.2378,0.2369,0.2373,0.2403,0.2406,0.2408,0.2384,0.2424,0.2425,0.2425,0.2388,0.2387,0.2385,0,0,0,0,0,0,0.2276,0.2278,0.2307,0.2298,0.2303,0.2334,0.2338,0.2344,0.2348,0.2378,0.2384,0.2368,0.2404,0.2407,0.2403,0.2386,0.2425,0.2425,0.239,0.2388,0.2386,0.2336,0,0,0,0,0,0,0.2274,0.2278,0.227,0.2298,0.2303,0.2301,0.2337,0.2344,0.2349,0.2354,0.2378,0.2383,0.2406,0.2402,0.2403,0.2387,0.2425,0.2391,0.2389,0.2387,0.234,0.2333,0.2327,0,0,0,0,0,0.2273,0.2255,0.227,0.2273,0.2295,0.23,0.2303,0.233,0.2348,0.234,0.2359,0.2382,0.2388,0.2401,0.2403,0.2387,0.2392,0.239,0.2387,0.2342,0.2334,0.2328,0,0,0,0,0,0,0.2224,0.2259,0.2276,0.2266,0.228,0.2309,0.23,0.2321,0.233,0.2333,0.2366,0.2371,0.2362,0.2374,0.2388,0.2367,0.2394,0.2391,0.2359,0.2352,0.2346,0.2342,0.2426,0,0,0,0,0,0.2212,0.2215,0.2245,0.2233,0.2239,0.2268,0.2272,0.2291,0.2307,0.2313,0.2331,0.2345,0.2349,0.2352,0.2358,0.2343,0.2347,0.2332,0.2326,0.2321,0.2318,0.2309,0.2302,0.2376,0.2376,0.2376,0,0,0.2188,0.2207,0.2206,0.2224,0.2237,0.2237,0.2273,0.2272,0.2273,0.2312,0.2308,0.2323,0.234,0.2329,0.2325,0.2339,0.2299,0.2318,0.2313,0.2313,0.2305,0.2298,0.2292,0.2374,0.2375,0.2375,0,0,0.2142,0.2158,0.2149,0.2162,0.2181,0.2201,0.2199,0.2224,0.2235,0.2232,0.2261,0.2262,0.227,0.2281,0.2287,0.2246,0.2267,0.2247,0.2214,0.2205,0.2199,0.2194,0.2178,0.2171,0.2244,0.2244,0.2244,0,0.2109,0.2112,0.2142,0.2139,0.2145,0.2182,0.2173,0.2184,0.2204,0.2207,0.2222,0.2232,0.2247,0.2238,0.2228,0.2233,0.223,0.2243,0.2198,0.2193,0.2189,0.2173,0.2167,0.2242,0.2242,0.2242,0.2242,0,0.2068,0.207,0.206,0.2079,0.2084,0.2078,0.2107,0.2109,0.2128,0.2146,0.2141,0.216,0.217,0.217,0.2189,0.2164,0.2171,0.2192,0.2219,0.2178,0.2164,0.2159,0.2238,0.2239,0.2239,0.224,0,0,0.1992,0.2028,0.2023,0.2032,0.2056,0.2057,0.2053,0.2063,0.2063,0.2076,0.2072,0.2078,0.2097,0.2104,0.2125,0.2117,0.208,0.2138,0.2139,0.2125,0.2052,0.2034,0.2027,0.2096,0.2095,0.2094,0.2049,0,0.1949,0.1944,0.1971,0.1957,0.1958,0.1993,0.1989,0.2003,0.2019,0.2022,0.204,0.2043,0.2069,0.2074,0.2068,0.2086,0.2066,0.209,0.209,0.209,0.2082,0.202,0.2001,0.1958,0.2044,0.2043,0.2043,0,0.1899,0.1909,0.1895,0.1919,0.192,0.1916,0.1927,0.193,0.1946,0.1958,0.1966,0.199,0.1986,0.2014,0.2008,0.2024,0.2026,0.2035,0.2034,0.2033,0.2062,0.2014,0.1945,0.1937,0.2035,0.2035,0.2036,0,0.1841,0.1852,0.1844,0.1851,0.1879,0.1875,0.1887,0.1904,0.1908,0.1918,0.1921,0.193,0.1934,0.194,0.1965,0.1983,0.1956,0.1986,0.1965,0.1964,0.1955,0.1955,0.1883,0.1961,0.1961,0.1961,0.1961,0,0.1789,0.1779,0.1819,0.1814,0.1803,0.1835,0.1823,0.1839,0.1854,0.1852,0.1884,0.1881,0.1916,0.1917,0.1937,0.1928,0.1931,0.1939,0.1944,0.1935,0.1933,0.1935,0.1937,0.1959,0.196,0.196,0.196,0,0.1722,0.1749,0.1743,0.177,0.1777,0.1768,0.1791,0.1787,0.1806,0.1803,0.1805,0.1834,0.1837,0.1863,0.1872,0.1886,0.1868,0.188,0.1862,0.1865,0.1841,0.1842,0.1765,0.1756,0.1842,0.1842,0.1841,0,0.1686,0.1678,0.1705,0.1707,0.1717,0.1719,0.1723,0.1754,0.1757,0.1775,0.1768,0.1774,0.178,0.1783,0.1805,0.1811,0.1822,0.1795,0.1823,0.1813,0.1819,0.1817,0.1816,0.1788,0.1787,0.1786,0.1785,0,0.1618,0.1631,0.1636,0.1645,0.165,0.1659,0.1669,0.1668,0.1703,0.1704,0.1708,0.1713,0.1722,0.1726,0.1737,0.1748,0.1771,0.1776,0.1771,0.176,0.1749,0.1752,0.1843,0.1777,0.1778,0.1779,0.1779,0.1779,0.1563,0.1558,0.1575,0.158,0.1591,0.1601,0.1598,0.1617,0.162,0.163,0.1649,0.1649,0.1665,0.1682,0.1691,0.1691,0.1705,0.1699,0.1696,0.1693,0.1687,0.1751,0.1694,0.1694,0.1694,0.1694,0.1695,0,0.1494,0.1508,0.1512,0.1525,0.1529,0.1552,0.1565,0.1566,0.1566,0.1579,0.1584,0.1588,0.1592,0.1614,0.1621,0.1617,0.1628,0.1617,0.1616,0.1618,0.1676,0.1678,0.1608,0.1608,0.1608,0.1608,0.1608,0.1608,0.1459,0.145,0.1466,0.1463,0.1477,0.1477,0.1483,0.1491,0.1502,0.1504,0.1508,0.1523,0.1539,0.1548,0.1552,0.1559,0.1559,0.1544,0.1554,0.1606,0.1614,0.1622,0.1625,0.1544,0.1544,0.1496,0.1495,0.1495]}]]